Back to catalog

SATCOM 3 DEB

AliveHEO
NORAD 32993·DEBRIS·🇺🇸 United States

Launched Dec 7, 1979 from Cape Canaveral Space Force Station

Loading…

Next Passes (next 24 hours)

TLE

FreshSource: Space-Track

Epoch: Sep 14, 2026, 12:34 UTC

1 32993U 79101U   26257.52427238 -.00000110  00000-0  00000-0 0  9992
2 32993   7.2376 162.0071 4629658 320.6934 299.5651  1.81392944130324

Track SATCOM 3 DEB in real time with AllMySat

Download on the App Store